Showing default

OPS 9342 (IDSCS 20), 3285

Orbit data source: Space-Track

OPS 9342 (IDSCS 20), 3285 is a payload satellite owned by SAMSO (US) in GEO that was launched on Thu, 13 Jun 1968 UTC via a TITAN IIIC launch vehicle from the Air Force Eastern Test Range (AFETR). Payload-class satellites include a variety of spacecraft equipped with specific instruments for various scientific and technological missions. These include communications satellites like Starlink; space stations such as the ISS; scientific satellites like the Hubble; Earth observation satellites from companies like Planet Labs, Umbra, and HawkEye 360; GPS; miniature CubeSats for education and research; and military/defense satellites.

Loading next visibility...
Identifier
3285, 1968-050B
Orbit
GEO
Country
Flag of USUS
Related business
Manufacturer
Philco-Ford
Mission
Non-operational spacecraft
Bus & Motor
IDCSP, Unknown motor
Mass
45 kg wet, 45 kg dry
Launch date (UTC)
1968-06-13 (58 years ago)
Launch vehicle
TITAN IIIC
Launch site
Air Force Eastern Test Range (AFETR)
Object type
Payload
Rocket body
Debris
Shape & HBR
Unknown
Radar Cross Section
Medium (>0.1 m² and <1 m²)

Expand to show TLE details & history
Last TLE update: 23 hours ago

TLE from 23 hours ago
0 OPS 9342 (IDSCS 20)
1  3285U 68050B   26123.57542440 -.00000051  00000-0  00000+0 0  9998
2  3285   7.1493  52.1515 0014470 153.9226  40.1988  1.07818525227689
Epoch: 2026-05-03T13:48Z
TLE epoch observation values (Epoch: 2026-05-03T13:48:36.668Z)
Latitude
-1.76919°
Longitude
177.64826°
Altitude
33,750.433 km
Speed
3.153 km/s
True Right ascension
16h 25m 06s
True Declination
-1° 46' 02"
Sunlit
Object was in daylight at epoch
Visualization orbit readout
Latitude
Unknown
Longitude
Unknown
Altitude
Unknown
Speed
Unknown
Apparent Right ascension
Unknown
Apparent Declination
Unknown
Sunlit
N/A
Visualization observer readout
Local Sidereal Time
21:07:01
Azimuth
Unknown
Elevation
Unknown
Doppler factor
Unknown
Orbital elements
Apogee altitude
33,854.583 km
Perigee altitude
33,738.318 km
Semi-major axis
40,174.587 km
Eccentricity
0.00145
Inclination
7.1493°
RAAN
52.1515°
Arg. of periapsis
153.9226°
True anomaly
40.30597°
Mean anomaly
40.1988°
Eccentric anomaly
40.25237°
Mean motion
0.26954 °/min
Orbital period
1,335.63 mins
BSTAR
0
Loading maneuver chart data...
Computing Atmospheric mass density...
Loading historical data...
Loading historical data...
Loading historical data...
Loading historical data...
Loading historical data...
Loading historical data...
Loading historical data...

Documentation

Showing up to 5 results
|